Wind_Gust
27 27 27 26 27 28 28 28 29 29 29 28 28 28 27 25 24 23 23 22 20 19 19 18 17 18 17 17 17 15 16 16 13 13 10 14 7 5 7 9 6 5 7 12 12 15 16 15 16 16 19 21 17 18 16 14 14 18 22 20 19 16 18 18 10 12 13 14 14 13 10 13 17 17 17 19 19 18 19 18 17 19 22 24 25 23 24 24
27 27 27 27 28 29 29 29 29 29 29 28 29 28 27 25 25 24 24 23 21 19 19 18 18 17 17 16 16 13 17 15 12 14 16 9 6 7 7 6 6 6 10 13 14 13 14 15 16 19 19 21 15 18 18 19 15 22 19 19 19 17 16 11 12 11 14 15 15 12 10 12 14 17 23 26 25 23 23 20 20 22 21 23 24 23 22 23
28 27 27 27 28 29 29 29 29 29 29 30 29 28 27 27 26 24 24 22 21 19 19 18 17 16 15 14 13 11 14 15 12 20 14 7 8 8 7 5 6 6 14 8 8 10 10 14 16 19 21 18 22 17 20 20 21 14 16 20 14 14 17 9 10 13 14 15 14 11 10 11 16 12 19 21 25 23 23 24 21 21 23 23 24 21 21 21
28 27 28 27 28 28 29 29 29 30 29 28 28 28 27 27 26 25 23 22 20 19 18 17 16 15 14 14 11 16 15 14 21 14 13 7 7 7 6 6 7 11 10 11 8 10 9 11 16 18 17 18 18 12 23 20 25 18 20 19 15 15 14 13 10 12 15 14 14 10 9 14 12 12 17 20 25 25 22 15 17 22 22 26 24 21 20 21
28 27 28 28 28 29 29 29 30 29 29 28 28 28 27 27 26 25 22 21 20 19 18 16 15 14 13 11 13 13 16 16 15 10 14 9 7 7 7 7 8 12 9 11 11 10 13 14 17 16 18 18 18 18 17 18 16 15 19 12 12 14 13 13 11 11 16 11 12 10 11 15 13 17 15 19 21 21 20 18 19 23 25 27 25 20 20 22
27 27 27 29 29 29 29 30 30 30 29 28 28 27 27 26 25 24 22 20 19 18 17 15 14 14 11 8 14 13 16 16 13 12 8 10 8 7 6 8 9 12 10 10 11 10 15 15 17 18 20 15 19 22 18 14 15 19 15 12 11 10 13 12 8 11 15 16 14 11 13 12 12 18 17 17 20 17 14 17 21 25 25 24 23 21 21 22
27 28 29 29 29 29 30 30 30 30 29 28 27 27 25 24 23 22 21 19 18 17 16 15 13 14 14 10 14 16 20 26 10 14 11 8 9 9 8 8 10 12 10 11 11 15 15 15 17 15 15 15 18 19 18 15 16 19 15 16 14 12 15 12 12 11 14 15 15 12 9 13 15 15 14 20 17 18 18 19 23 27 26 24 23 21 22 22
28 28 29 30 30 29 30 30 30 29 29 27 27 24 24 23 21 21 19 17 16 16 15 14 12 11 11 13 16 15 20 20 13 11 10 9 10 11 12 12 10 11 10 11 9 11 13 15 16 13 15 17 19 15 15 15 15 19 14 14 10 11 14 13 12 13 13 13 12 10 12 13 13 17 14 17 16 16 18 21 25 26 25 22 21 22 22 22
28 29 29 29 29 29 29 29 30 29 28 29 27 27 24 23 20 19 19 17 16 13 14 11 9 8 6 13 11 20 20 12 12 10 17 15 11 11 12 11 7 10 9 9 10 9 12 12 12 16 13 14 16 13 15 17 20 17 11 10 11 14 11 11 12 10 10 11 9 13 16 15 17 19 21 15 15 17 19 21 25 26 25 22 21 20 19 19
28 29 29 30 29 28 28 29 31 29 28 30 29 27 26 23 20 17 17 17 16 12 12 10 9 7 11 13 13 19 13 10 7 9 12 13 12 12 13 12 11 11 10 11 8 10 12 13 11 11 13 11 16 12 12 19 18 11 12 13 14 12 11 8 11 11 9 9 9 12 14 14 13 14 19 12 15 18 21 23 24 25 25 22 20 19 19 18
28 29 30 30 31 29 30 31 32 31 29 30 31 29 25 22 19 17 16 16 15 11 10 9 8 12 14 15 13 21 10 10 8 10 11 12 12 12 9 9 10 11 11 9 12 12 11 8 9 11 15 14 18 14 15 12 11 9 11 11 15 15 14 12 9 10 12 13 11 16 12 8 10 11 19 15 14 18 22 24 24 25 24 23 20 19 17 16
29 29 30 31 31 31 31 32 32 32 31 32 29 26 23 21 17 14 14 13 11 8 6 5 6 14 15 13 21 18 9 8 10 10 12 13 12 11 10 9 10 12 13 12 12 11 10 10 11 12 17 20 16 15 13 8 14 9 12 17 16 15 20 16 13 13 12 12 10 11 16 14 13 14 14 14 13 19 20 22 23 24 23 22 20 19 16 15
29 30 30 31 32 32 32 33 34 33 32 32 28 26 24 19 14 12 11 9 9 7 4 4 8 12 13 13 18 12 8 8 10 9 10 13 13 11 10 8 10 11 11 12 11 10 9 12 12 11 13 14 15 14 16 10 12 11 14 17 17 18 21 18 13 13 13 12 9 14 23 21 17 17 15 14 17 20 21 22 24 24 23 21 18 18 17 15
29 29 31 32 32 32 34 33 35 34 32 31 29 26 24 16 10 8 8 8 7 6 5 5 13 12 13 22 13 9 8 9 10 12 11 9 12 10 10 8 8 10 8 10 9 10 8 10 12 12 8 11 12 12 15 15 14 20 15 16 20 22 24 21 18 15 16 10 10 13 23 22 19 14 15 15 16 20 23 23 22 23 21 20 18 17 17 14
29 30 31 32 32 33 33 34 34 34 32 31 28 27 19 13 8 8 7 7 6 6 5 7 13 13 12 19 11 12 10 11 11 12 8 11 10 11 11 10 8 7 9 9 8 8 8 10 12 16 14 10 11 14 18 17 17 14 22 23 15 19 23 20 16 15 18 16 13 15 24 21 23 17 15 15 17 19 22 22 20 19 19 18 17 17 17 16
28 29 30 31 32 32 33 33 34 34 32 31 29 24 13 8 9 8 6 6 7 6 14 12 11 14 9 20 15 14 13 9 14 11 10 11 10 11 11 9 9 9 9 10 7 9 9 13 14 12 11 14 16 17 17 19 18 17 21 16 20 22 18 17 22 14 13 16 17 20 23 18 20 18 17 15 18 19 23 21 19 18 18 17 17 16 16 16
28 30 30 31 31 32 33 33 34 35 33 31 31 15 9 7 11 9 7 8 9 11 13 12 12 11 13 16 13 13 12 13 10 8 8 8 10 10 10 10 11 14 11 11 10 11 11 14 11 13 13 15 10 13 17 18 18 19 17 13 14 20 16 19 22 16 13 17 20 22 26 14 16 20 18 16 17 23 23 22 20 19 17 16 16 15 15 14
28 29 30 31 31 33 32 33 34 35 33 30 23 11 12 8 11 10 7 10 10 12 12 11 11 13 25 14 11 15 14 13 14 13 8 9 8 8 9 8 9 11 15 17 14 15 12 15 17 15 17 15 16 18 18 17 18 16 18 16 17 16 12 14 16 19 16 16 21 19 25 19 18 20 20 18 19 23 22 22 22 20 16 16 15 15 13 14
28 29 30 31 32 32 31 32 34 34 32 31 22 10 10 8 14 13 13 10 15 14 14 15 13 15 20 15 11 11 13 13 13 12 10 7 10 8 10 9 11 17 15 16 17 13 16 14 17 15 19 19 20 15 16 15 11 9 12 15 13 17 23 25 14 13 12 18 25 22 27 22 20 22 21 20 21 23 21 20 20 17 15 15 15 15 14 15
28 28 30 32 32 31 31 32 33 34 28 25 15 12 14 19 19 14 14 10 13 14 14 14 9 10 15 13 13 17 13 9 11 10 9 7 12 10 10 11 11 15 13 14 15 12 13 17 19 18 11 9 13 11 14 11 10 10 11 12 14 15 12 10 10 12 10 18 25 25 25 22 22 23 22 22 25 23 23 23 23 18 17 17 17 16 14 12
27 29 31 31 32 30 31 31 32 31 30 22 22 16 16 14 13 14 19 18 10 9 10 9 11 13 15 16 13 14 11 13 8 10 9 9 11 14 12 15 15 17 14 11 10 12 18 15 11 12 12 11 10 10 9 10 9 13 13 13 18 15 20 14 11 11 12 21 21 18 20 20 21 22 22 23 26 26 27 27 25 21 18 18 17 16 16 14
26 28 30 30 31 31 30 31 31 26 27 19 18 20 16 13 12 12 12 16 13 8 9 10 9 13 10 13 10 10 12 11 14 12 9 12 9 18 11 16 13 16 12 13 16 18 16 16 14 13 11 8 8 7 9 10 11 12 18 15 17 18 11 10 10 11 13 20 22 20 26 22 20 21 21 24 26 25 25 26 24 21 19 19 17 17 15 15
25 29 29 30 31 29 28 29 28 23 20 16 17 15 14 11 11 10 12 13 17 10 9 8 10 8 10 10 9 10 11 10 13 12 11 11 9 15 9 12 13 12 14 15 14 13 16 14 14 12 8 10 11 9 11 14 13 15 19 20 22 12 16 21 15 12 15 24 20 21 25 21 19 19 20 21 24 24 24 23 22 19 20 19 17 16 16 16
25 27 29 29 31 32 31 29 28 16 14 14 16 15 10 10 11 14 15 9 12 14 8 9 11 9 9 10 11 11 11 14 12 15 9 12 11 9 12 12 12 10 15 10 13 17 18 15 10 8 10 11 13 10 13 18 18 12 16 17 17 15 12 20 14 17 19 21 18 19 24 22 22 23 24 22 21 22 23 21 22 21 19 17 14 13 14 15
25 27 28 29 30 32 33 27 12 15 14 12 12 11 11 10 12 16 16 13 14 13 8 9 8 9 10 9 9 12 10 9 10 11 10 11 12 13 13 9 16 13 12 9 11 16 15 13 8 9 11 10 11 17 13 17 16 14 11 13 13 10 13 13 15 15 19 20 21 21 29 30 24 25 27 26 28 28 26 26 27 24 22 20 18 16 15 14
24 26 27 27 31 31 32 13 12 16 15 11 13 11 12 12 11 16 19 12 15 18 15 14 9 14 12 11 8 8 12 9 11 11 11 12 12 14 15 13 18 12 10 9 15 21 16 10 9 9 11 11 12 15 10 13 20 15 13 10 10 12 12 12 14 17 21 22 23 20 28 24 25 27 27 28 27 28 25 27 26 25 26 23 21 20 20 19
24 26 26 25 25 29 17 10 17 18 13 14 11 13 14 14 12 17 17 14 11 13 10 17 13 18 14 11 9 9 19 17 13 11 9 10 11 9 17 13 12 11 8 10 18 18 13 10 10 10 12 15 13 19 10 13 18 20 12 10 11 14 14 14 17 19 18 16 14 18 27 28 24 28 25 27 27 31 28 28 29 29 26 26 23 22 19 20
25 25 25 23 23 18 14 21 20 14 13 11 13 14 15 12 13 13 18 11 15 13 12 18 11 12 11 8 9 15 16 11 17 13 10 11 12 13 17 10 13 13 12 14 18 21 10 10 11 11 13 16 18 13 11 11 19 16 9 10 14 14 15 15 17 21 16 15 21 21 18 29 29 18 22 23 26 31 32 29 30 27 26 25 24 24 20 18
25 25 25 23 25 19 13 13 15 15 14 13 14 16 15 10 16 20 14 12 16 17 15 12 13 11 11 12 12 8 9 8 16 14 10 10 16 13 16 12 10 13 9 13 19 15 9 10 11 13 16 19 9 9 9 10 19 10 9 14 13 14 14 16 21 21 18 23 24 19 21 31 28 20 21 24 27 29 29 26 26 27 25 25 22 20 20 19
23 23 23 22 21 11 11 12 18 15 15 14 16 17 12 13 15 16 12 11 17 18 17 15 17 13 11 14 14 11 15 12 8 10 12 10 13 13 13 9 10 12 14 13 14 12 10 8 9 14 16 14 12 10 9 9 10 8 11 17 17 18 20 16 20 21 16 25 28 19 19 24 28 22 24 27 31 30 24 23 24 25 21 21 21 21 23 22
21 23 22 20 16 14 16 16 15 12 10 15 18 14 14 17 14 13 7 15 14 16 13 13 15 11 15 14 16 15 9 9 11 11 14 13 15 13 13 16 13 16 16 14 14 12 12 12 16 11 9 13 12 14 10 9 9 14 20 19 19 21 17 21 22 18 27 29 20 26 19 17 29 19 22 22 17 26 28 25 26 26 27 25 23 24 23 22
22 23 24 21 17 14 14 10 13 10 14 18 19 15 15 13 16 17 10 14 17 16 15 18 11 13 11 10 11 12 11 12 10 13 17 10 11 16 15 18 8 17 15 9 12 13 17 12 11 10 9 11 15 19 17 17 16 20 20 20 22 21 16 22 23 25 27 30 15 12 14 22 32 25 13 19 20 16 20 22 25 27 29 25 23 23 23 23
23 25 29 24 15 17 21 24 16 16 16 16 17 15 16 11 13 17 14 17 12 11 17 9 14 14 11 13 15 11 9 13 14 10 10 11 18 11 10 12 9 14 19 11 17 16 14 10 13 12 13 12 14 19 16 19 21 21 22 21 22 23 22 20 22 23 23 19 17 16 12 31 21 19 19 17 21 16 12 15 15 17 22 26 26 24 25 25
25 26 24 10 17 20 15 9 10 10 12 12 17 16 16 12 14 10 10 17 10 9 12 13 12 10 14 19 12 10 17 13 11 13 15 13 17 15 17 12 11 11 14 11 20 13 17 13 19 14 13 11 15 15 14 15 16 21 15 20 22 23 26 20 21 23 22 23 16 13 20 30 21 13 15 11 12 12 11 14 14 13 15 18 23 26 25 25
29 26 18 14 15 19 20 17 12 8 11 14 18 21 15 21 16 13 15 14 12 10 11 8 15 16 15 14 11 10 14 11 12 12 17 15 17 17 14 15 12 12 9 19 12 14 11 21 16 9 11 12 11 10 11 14 18 15 14 17 22 23 21 30 13 18 17 17 17 22 24 10 16 16 13 10 10 11 11 12 13 16 16 17 21 26 27 29
20 15 10 11 10 10 12 14 12 11 13 16 20 21 24 17 13 12 12 10 11 14 14 12 12 18 15 15 13 13 8 14 14 15 13 17 9 15 9 10 16 15 14 18 10 18 13 18 13 11 8 10 11 9 10 12 15 14 17 22 17 16 17 17 10 13 9 22 32 22 23 24 17 22 21 16 12 13 11 12 14 15 17 19 21 23 24 27
20 19 12 9 9 11 10 13 16 14 17 17 20 22 21 17 12 11 9 10 10 11 16 18 21 19 15 17 14 16 13 13 13 16 17 14 19 19 14 13 8 14 11 17 13 10 19 13 16 12 13 11 8 9 11 11 16 15 19 13 14 13 16 17 20 12 16 26 23 18 23 23 22 26 14 15 15 16 17 15 15 14 16 21 24 24 25 26
19 15 12 12 12 11 12 16 16 13 15 17 21 12 11 16 9 9 8 9 10 10 16 21 9 11 14 12 15 15 15 17 16 16 13 16 12 12 13 15 15 13 11 12 17 10 12 22 18 11 8 12 11 12 15 12 10 18 15 14 20 14 18 19 19 21 21 23 26 22 21 24 22 20 18 16 19 17 15 15 15 18 20 22 21 21 22 23
12 13 12 12 12 13 14 15 13 14 17 20 23 18 17 21 9 8 10 10 10 11 21 17 15 13 12 15 9 10 15 19 15 15 16 16 18 16 15 12 16 13 13 12 17 11 12 18 16 14 14 10 13 17 15 14 15 11 13 18 12 17 17 14 15 19 20 20 18 21 18 23 18 20 13 15 17 15 12 14 19 22 22 21 19 20 23 24
14 14 10 11 10 11 15 12 13 15 19 21 19 24 12 11 11 11 11 12 14 16 19 15 11 12 15 11 10 12 14 15 14 12 15 13 14 16 14 14 13 18 13 14 12 12 11 10 17 18 9 12 20 19 14 13 14 17 18 19 15 19 14 20 19 23 22 23 22 25 27 20 15 16 12 16 16 16 17 20 18 19 20 19 18 19 21 22
8 12 13 10 11 13 13 14 17 21 21 17 11 14 10 14 9 10 10 10 12 9 13 12 15 19 14 14 16 11 12 15 16 17 16 13 18 15 19 17 14 17 16 15 15 15 11 17 17 12 18 19 12 11 10 13 15 16 14 15 15 15 15 17 21 17 22 25 24 22 30 21 19 11 12 16 13 14 15 16 17 16 16 16 17 17 20 21
10 13 13 11 9 11 16 18 21 9 17 18 17 15 14 8 15 12 12 12 12 14 9 12 10 13 12 17 10 14 15 15 15 15 13 17 15 19 14 10 16 15 21 19 16 14 14 11 16 18 17 15 11 9 9 10 12 15 17 17 13 16 16 21 21 15 15 22 21 24 28 25 14 12 12 13 13 13 13 13 16 14 14 15 16 16 18 19
11 11 11 9 9 12 16 20 14 14 20 15 9 14 11 13 11 9 13 13 15 14 14 16 15 15 14 16 10 13 14 17 13 18 11 15 12 18 14 16 13 16 19 10 11 14 7 19 18 20 17 13 12 10 10 10 11 17 20 19 16 19 16 19 21 15 20 14 19 20 27 26 14 16 14 11 12 13 13 13 16 14 13 14 16 16 17 18
10 13 14 10 10 12 19 21 17 17 21 13 12 15 10 13 11 12 18 12 18 13 18 17 11 14 13 11 13 16 14 14 13 15 15 12 15 10 15 15 18 19 19 15 18 23 20 16 17 15 19 16 16 13 15 11 16 20 18 16 17 17 14 14 17 14 22 23 23 25 30 22 16 12 13 13 13 15 16 14 13 16 14 15 17 16 16 17
14 13 12 16 11 16 23 18 19 12 14 15 17 18 18 16 14 17 16 17 13 16 12 19 18 12 15 9 15 13 15 17 13 14 12 10 12 11 12 16 19 16 17 12 6 20 17 12 16 17 16 16 17 16 11 10 15 15 14 15 16 18 17 16 18 17 22 17 17 24 30 24 15 17 15 16 16 17 17 16 14 14 13 15 16 17 17 18
9 10 12 13 15 17 22 10 12 15 16 14 10 19 17 21 14 12 13 20 17 14 19 13 9 14 13 13 16 16 17 14 16 11 16 15 14 16 13 18 18 19 10 13 14 17 15 11 18 20 19 19 16 17 11 13 13 14 14 16 18 18 19 19 20 21 23 15 23 22 27 27 26 22 20 20 16 16 18 14 15 15 15 15 15 17 18 20
10 12 9 7 13 17 18 15 18 17 20 12 18 12 16 18 16 14 12 20 12 20 20 18 15 17 17 17 19 19 17 15 15 13 15 14 13 12 12 15 19 12 12 15 15 16 17 19 17 18 19 20 18 17 13 11 17 17 17 17 16 18 19 20 22 25 16 20 29 23 20 25 28 23 21 20 19 18 17 17 17 16 15 17 17 17 15 20
12 11 8 12 12 11 13 15 16 18 17 14 20 10 14 13 12 14 11 15 9 12 17 15 19 21 18 21 19 21 16 18 16 17 16 17 15 15 17 16 19 16 17 18 19 20 19 16 13 14 17 17 17 17 15 15 17 18 18 18 19 19 20 23 24 25 22 24 31 22 21 26 27 25 24 22 21 21 20 19 17 16 16 15 16 18 21 22
12 10 10 9 12 11 13 12 11 13 19 20 23 18 20 19 19 16 13 10 11 14 19 15 18 22 24 22 21 23 19 17 16 20 21 16 19 17 21 17 18 17 22 16 20 17 20 21 12 13 17 17 16 16 14 18 19 20 21 21 21 21 23 24 26 24 26 27 28 29 27 30 30 28 27 26 18 16 19 15 15 16 19 19 19 20 22 24
10 10 11 9 15 16 11 11 12 13 18 16 19 19 26 22 22 19 17 15 14 14 11 20 20 18 21 24 23 28 20 19 15 14 17 18 16 19 19 19 15 21 21 20 19 13 21 14 12 13 17 19 15 13 14 16 17 24 22 21 22 22 23 24 26 26 25 28 28 29 29 32 30 24 24 20 14 14 14 17 18 17 16 18 20 21 22 24
8 8 9 11 14 13 12 14 16 17 17 17 23 19 19 20 22 20 23 18 19 20 14 16 17 20 15 19 23 27 24 19 19 19 16 19 20 18 22 18 19 17 21 21 20 16 19 14 12 14 15 19 15 13 13 14 16 22 25 24 24 23 25 25 31 25 24 27 24 23 25 28 27 19 15 15 16 17 16 16 15 15 16 17 20 22 22 23
11 8 10 12 15 9 16 10 13 14 19 19 19 17 21 17 17 16 20 18 21 22 21 18 13 14 17 16 21 23 20 19 20 18 18 19 19 17 22 20 20 22 21 23 19 24 22 21 14 15 19 18 10 11 13 15 20 25 25 27 23 21 22 22 22 21 25 23 21 22 27 24 20 15 17 17 15 16 17 17 16 16 16 19 21 22 22 22
Wind_Speed
19 19 19 20 20 20 20 20 21 21 20 20 20 19 18 17 17 15 15 14 13 13 12 12 11 11 11 11 10 8 11 7 5 6 3 6 4 3 2 3 2 3 6 5 5 7 8 7 8 8 8 9 6 7 6 6 4 6 7 7 7 5 7 7 1 2 4 3 5 3 1 4 6 8 7 8 8 9 9 10 8 10 12 14 14 13 13 14
18 19 19 19 19 20 20 20 21 21 20 21 20 19 19 17 16 15 14 13 13 13 12 11 11 10 10 9 10 8 9 7 4 6 8 5 2 1 0 3 3 6 7 5 6 6 6 7 8 10 8 8 6 4 8 6 5 8 6 6 7 6 5 3 4 2 4 6 5 3 3 4 5 8 9 11 12 10 12 9 10 12 12 14 14 14 13 13
18 19 19 19 19 18 19 19 20 21 21 20 20 20 19 17 16 15 14 13 13 12 11 10 9 9 9 8 6 6 7 7 2 11 6 4 3 1 1 2 5 4 7 2 2 3 3 7 8 10 9 6 9 6 10 7 8 5 5 7 4 5 7 1 1 4 6 6 4 3 3 2 7 4 8 9 11 13 12 10 6 8 11 13 14 13 12 11
20 19 20 20 20 19 19 19 20 20 21 21 21 20 19 19 16 16 14 13 13 12 10 10 9 8 8 8 5 8 7 6 10 6 6 6 3 2 2 1 4 8 3 2 2 3 2 3 8 9 6 7 7 4 10 7 9 6 7 6 4 6 5 5 2 4 7 6 5 3 2 5 4 4 7 10 11 12 4 5 10 12 11 15 15 13 11 11
20 20 20 20 20 20 20 20 20 20 20 20 20 19 18 18 17 15 15 13 12 11 10 9 8 7 6 5 7 4 6 5 6 3 8 6 3 1 1 3 5 6 3 1 3 3 6 7 8 7 7 5 8 8 7 8 6 3 8 3 4 6 3 6 2 4 8 5 5 2 3 5 5 5 4 4 9 7 8 6 11 14 14 15 16 12 12 13
19 20 20 21 21 21 21 20 19 19 18 19 20 20 18 17 17 15 14 14 12 10 9 8 7 7 6 1 5 6 6 3 2 3 7 6 4 0 1 3 6 6 3 3 4 4 7 7 8 7 7 5 9 9 7 5 7 6 6 3 3 2 3 5 0 5 7 6 5 3 5 3 3 9 9 3 4 2 4 8 11 14 15 15 14 13 13 12
19 19 20 21 22 21 21 21 21 20 18 19 20 19 17 18 17 16 14 14 11 9 8 7 7 8 8 7 5 7 3 9 2 6 9 6 4 2 2 6 8 5 4 4 4 6 7 7 8 6 6 6 9 7 9 6 7 8 4 7 6 4 6 1 4 5 7 8 5 4 1 4 7 6 6 9 6 4 7 10 13 16 16 15 14 12 13 12
19 19 20 21 22 21 21 21 22 21 20 20 20 19 19 18 17 16 14 13 10 8 7 6 6 7 8 5 6 4 9 8 5 5 8 6 5 6 7 6 4 5 3 3 0 4 6 7 7 4 5 6 8 4 7 7 7 8 2 7 3 4 5 4 4 5 6 5 2 2 3 5 3 7 6 9 8 8 10 12 15 16 15 13 13 13 13 13
19 20 20 21 21 21 20 21 21 21 21 22 21 22 20 18 16 15 14 11 8 7 6 5 6 5 4 5 4 9 8 4 5 4 9 8 5 5 6 4 1 3 2 2 3 2 5 4 3 6 2 6 7 5 7 8 8 7 4 3 4 6 4 3 5 3 3 2 2 3 7 6 8 11 11 7 7 9 11 12 15 16 15 13 12 12 12 12
19 20 20 21 21 22 21 21 20 21 21 22 23 22 21 18 15 13 12 9 6 5 3 4 6 4 5 5 5 5 5 4 0 3 5 5 5 6 7 5 4 4 2 4 1 2 3 5 3 4 3 2 7 4 4 10 6 4 5 5 5 5 4 1 4 2 1 2 1 3 7 6 6 5 5 4 7 10 11 13 14 15 15 13 11 11 10 10
19 20 21 21 22 22 22 21 22 21 21 23 23 21 20 16 13 11 8 5 3 1 1 1 6 8 6 7 2 8 3 3 1 2 5 6 5 6 3 2 4 4 4 3 5 5 4 1 2 2 5 3 8 6 6 2 3 2 4 4 6 6 6 5 3 2 3 5 2 5 3 1 3 1 7 6 7 10 13 13 13 13 14 12 12 10 9 8
20 20 21 22 23 23 23 23 22 21 21 23 23 20 18 16 11 9 5 2 1 0 1 0 4 5 6 5 9 7 2 2 1 2 5 6 5 4 4 3 4 5 5 4 5 4 3 3 3 4 1 9 5 6 5 1 6 2 4 7 8 7 8 8 5 3 5 4 3 4 4 6 4 5 6 6 6 10 11 12 12 12 12 12 11 9 7 7
20 21 21 22 23 23 23 23 23 22 23 23 21 20 17 14 9 5 1 3 2 3 2 1 6 3 5 4 7 5 0 1 1 3 3 5 5 4 3 2 4 5 5 5 4 4 2 3 4 4 5 5 6 2 6 3 5 4 6 7 7 8 9 10 5 4 6 4 1 4 8 8 7 9 7 6 8 11 11 11 11 10 10 10 9 8 8 7
19 21 22 22 22 24 24 25 24 24 23 22 20 18 16 11 7 2 1 3 3 4 3 1 4 4 5 9 5 3 1 2 3 5 4 3 5 3 3 2 2 3 2 3 2 3 2 3 5 2 1 4 4 4 7 5 6 7 6 6 7 8 8 12 8 7 7 3 3 6 8 8 9 7 7 7 9 11 11 9 10 10 10 9 8 7 7 7
18 21 21 22 23 24 25 25 25 25 24 22 19 16 14 9 6 2 2 5 3 3 3 5 4 4 3 7 4 5 4 2 3 4 1 4 3 4 4 2 1 1 2 2 1 1 1 3 5 7 4 2 3 6 7 6 6 4 8 8 5 7 8 11 8 8 8 7 6 6 9 8 12 7 7 7 8 9 12 11 10 9 9 8 8 8 7 7
19 20 22 22 23 24 25 25 26 24 23 23 18 17 10 7 5 2 2 3 4 3 5 5 3 5 0 7 6 8 6 1 5 3 3 4 3 3 4 3 1 3 3 3 0 0 2 4 3 4 1 6 7 5 6 6 6 5 8 7 8 9 5 7 12 7 6 5 8 11 8 7 9 7 8 7 9 9 9 9 9 9 9 8 8 7 6 7
18 20 22 22 22 23 25 25 27 26 23 21 19 10 5 4 4 2 3 6 4 4 4 3 3 3 1 5 4 6 4 5 3 1 2 1 4 3 3 3 4 2 3 4 3 4 2 6 3 4 4 5 1 4 6 7 6 7 6 3 5 9 5 5 12 7 6 8 9 11 11 6 6 10 9 8 9 10 8 9 9 8 7 7 7 6 6 5
18 20 21 22 22 23 24 25 27 28 24 23 19 7 3 2 6 8 5 6 2 3 3 2 2 3 9 4 2 7 5 5 5 5 1 2 2 2 3 2 3 4 6 7 6 6 3 5 6 4 6 5 5 6 6 6 6 6 7 5 5 7 4 5 4 9 8 8 11 10 13 10 9 9 10 9 10 11 10 8 8 7 7 6 5 6 6 6
18 19 20 22 22 23 24 25 27 26 24 25 19 8 6 4 5 5 4 1 5 5 5 3 3 3 8 7 2 3 4 5 5 5 3 1 2 1 1 2 2 9 5 6 7 5 5 3 6 4 7 7 8 6 5 6 2 1 4 5 4 6 10 10 5 5 5 8 12 12 11 11 10 11 10 10 11 11 10 8 7 6 6 6 6 6 5 6
18 19 20 22 22 21 23 25 26 26 22 18 3 4 4 3 4 4 1 2 4 6 6 5 2 3 5 0 6 7 4 3 4 3 2 1 4 3 2 3 4 7 5 2 5 1 3 6 7 7 3 1 5 4 6 4 3 2 4 4 5 6 3 2 1 2 2 8 12 13 14 11 11 12 12 12 12 11 11 11 10 8 8 8 8 7 5 5
19 20 22 22 23 22 22 24 26 24 22 10 12 2 4 4 4 2 6 4 3 2 3 2 4 5 6 7 5 6 1 6 1 4 2 2 5 6 2 5 6 5 4 3 1 4 7 4 1 4 4 3 3 3 2 1 3 5 5 5 6 6 7 6 1 1 4 9 10 9 10 9 11 11 12 12 14 14 14 13 12 12 9 9 9 8 8 6
19 21 21 23 23 23 21 24 25 20 19 8 6 6 5 5 4 3 3 2 3 2 2 3 3 5 2 3 3 3 6 3 7 5 3 5 0 8 4 4 3 5 4 5 6 7 4 3 5 4 3 1 0 0 1 3 4 5 7 6 6 6 3 2 1 2 4 9 9 10 14 10 9 10 11 12 14 12 12 12 12 12 10 9 8 8 7 7
19 21 22 22 24 22 22 24 20 18 7 4 5 5 5 4 2 2 4 2 3 3 2 2 3 1 2 3 3 3 4 0 5 4 4 4 2 6 1 1 2 4 5 6 2 4 5 4 6 4 1 2 3 2 3 4 5 5 7 7 9 2 4 7 5 3 5 8 6 9 13 7 7 9 11 11 13 10 10 12 12 11 11 10 8 7 7 8
20 21 22 23 24 23 23 23 22 11 3 6 6 7 3 3 3 5 6 1 2 4 0 3 4 2 3 3 3 4 4 5 4 7 2 5 3 1 2 4 2 2 3 1 3 4 7 7 2 0 1 4 2 2 5 7 7 4 7 7 7 6 4 9 3 2 5 6 6 9 10 7 8 10 10 10 10 10 13 12 12 11 10 8 6 5 6 7
20 21 21 22 24 23 26 21 4 4 3 3 3 3 3 3 4 7 7 4 4 4 2 3 2 1 3 1 3 5 3 2 3 4 3 4 3 5 5 1 5 2 2 2 2 5 6 5 0 3 2 3 3 7 5 7 6 5 1 5 5 3 6 2 3 6 7 7 9 11 10 11 11 14 12 10 10 12 11 12 13 13 12 10 9 8 7 6
18 20 20 21 24 25 25 6 4 6 3 1 5 3 4 4 3 6 7 3 5 6 5 5 2 4 2 4 1 1 4 2 4 3 3 5 4 5 4 3 5 3 2 2 4 6 5 3 2 2 3 2 5 6 3 5 8 6 4 2 3 5 5 5 6 7 8 8 9 10 12 7 11 14 13 10 12 13 12 14 12 12 12 12 10 10 9 9
17 17 18 19 20 22 8 2 8 9 5 5 3 5 5 5 3 5 4 3 3 3 2 6 4 5 3 4 2 2 9 7 4 4 3 2 4 2 8 4 3 3 1 2 5 5 4 3 3 3 5 6 4 8 3 5 7 7 5 3 4 7 6 7 8 8 7 7 3 7 9 10 8 12 13 16 15 14 13 14 14 13 13 13 11 10 10 10
18 18 18 18 17 14 4 8 10 5 5 4 4 5 6 4 2 4 5 2 2 4 4 7 3 2 3 2 3 6 7 2 7 5 3 2 4 5 7 2 4 4 4 4 6 9 3 3 4 4 6 6 7 5 4 4 7 4 2 4 7 6 7 7 7 8 6 5 7 8 9 10 11 6 12 14 14 19 20 16 18 16 13 12 11 10 11 9
18 17 17 16 18 14 5 4 6 6 5 4 5 5 3 1 4 5 3 3 3 2 3 3 2 4 4 5 5 1 3 1 7 6 3 3 4 5 5 4 1 2 2 5 7 6 2 3 3 6 6 7 2 1 3 3 8 3 1 3 4 6 6 8 8 9 7 9 10 8 9 11 11 7 8 11 12 13 13 14 13 13 13 12 11 11 11 10
16 17 17 16 13 5 3 4 8 6 6 5 6 5 1 3 4 5 2 4 5 6 7 5 6 4 4 6 5 4 7 5 0 2 2 2 4 3 3 2 2 5 5 5 6 4 3 1 2 5 6 5 4 0 1 2 1 1 4 8 7 8 8 6 8 8 5 6 12 11 9 11 8 9 10 10 12 13 10 10 10 12 12 12 11 12 12 11
15 14 16 14 5 4 5 5 3 1 2 6 9 5 3 3 4 2 4 4 4 6 4 5 5 3 7 7 6 7 3 3 4 4 5 4 6 2 5 6 3 6 5 5 4 3 5 4 7 2 2 5 4 5 3 2 3 6 7 7 7 8 7 8 8 7 9 10 9 15 10 8 11 6 8 10 5 11 13 14 15 15 15 13 13 12 13 12
16 15 16 10 6 4 4 2 5 3 6 9 10 5 5 3 4 5 0 5 7 6 7 7 4 5 5 3 4 3 3 5 3 5 7 2 4 6 5 7 1 5 5 2 1 2 7 4 3 2 1 5 6 8 6 7 6 8 8 8 9 7 4 6 8 9 9 11 2 0 5 9 13 11 4 2 5 8 10 10 12 15 15 14 13 14 12 12
18 15 19 13 8 7 8 11 7 7 8 8 7 5 5 2 4 7 4 6 1 1 5 2 6 7 5 6 6 4 3 5 6 2 4 3 7 2 3 3 2 4 7 2 7 6 1 2 6 4 5 4 6 7 5 7 8 9 8 8 8 7 7 7 7 7 8 8 6 5 3 12 9 7 9 7 8 5 3 6 6 7 11 14 13 13 13 13
19 18 10 3 7 8 5 2 2 3 5 5 6 6 5 3 3 6 2 5 2 2 5 5 5 4 7 7 5 4 6 6 4 5 6 4 6 6 6 5 4 4 5 4 7 4 6 4 7 6 2 2 6 5 5 6 6 7 6 7 9 8 7 5 5 8 7 7 2 3 6 8 10 2 4 1 2 0 1 3 3 5 6 7 11 13 14 14
22 16 8 5 6 8 10 7 4 2 3 4 6 7 5 7 6 2 5 5 4 3 4 2 7 8 7 6 4 3 5 2 4 4 7 6 6 6 5 5 6 5 1 8 3 4 4 7 5 2 4 3 4 2 4 6 7 5 4 6 9 8 6 10 3 7 6 5 5 7 6 1 2 5 4 2 1 2 3 3 5 7 8 8 9 12 13 13
14 3 2 3 2 3 4 4 5 5 4 5 6 6 9 5 2 3 1 3 4 6 5 5 5 8 6 5 6 6 3 6 6 6 5 8 2 6 1 1 6 7 5 5 2 7 4 6 6 4 2 2 2 2 3 3 5 3 6 8 4 5 6 6 3 2 3 8 11 7 8 8 6 9 10 7 5 5 4 5 5 6 8 10 10 11 13 13
5 7 2 1 1 3 2 5 6 6 4 6 7 8 8 5 5 3 2 3 2 3 8 7 7 7 6 6 5 8 6 5 5 6 5 5 7 9 5 5 2 6 4 6 4 2 8 3 8 5 6 4 1 2 1 4 6 3 7 1 4 3 6 5 6 2 5 9 7 7 9 9 8 4 3 6 6 7 7 6 6 5 7 10 11 12 13 14
6 5 3 2 4 1 3 6 8 4 5 6 8 10 3 6 1 2 2 1 4 4 6 8 1 4 4 4 5 7 8 7 7 6 5 7 1 3 6 5 8 5 4 4 6 2 2 8 6 4 1 5 4 5 6 4 3 7 5 6 8 2 8 7 4 8 8 8 7 8 11 10 9 5 6 6 9 9 7 5 5 7 8 10 10 11 12 12
4 4 2 4 3 3 5 7 5 5 6 7 8 7 6 8 2 2 1 2 2 4 8 8 6 4 4 5 1 4 7 7 6 6 6 6 6 7 6 4 8 6 6 5 6 2 4 6 3 5 6 2 5 6 5 5 6 4 4 6 4 5 5 5 3 6 5 8 7 8 8 5 7 7 4 3 3 3 4 3 7 8 8 8 8 9 11 12
4 4 2 4 3 2 6 4 4 5 7 8 7 8 3 3 3 3 3 3 4 5 7 7 5 4 6 4 3 4 7 7 4 3 6 4 4 7 6 6 4 9 7 7 3 3 3 2 6 6 3 3 6 6 4 4 5 6 6 6 5 6 3 6 6 7 7 7 7 8 8 4 3 6 2 2 4 5 6 8 8 8 8 8 8 8 9 11
1 3 2 3 2 4 4 5 6 8 8 6 4 5 3 5 2 3 3 3 5 1 4 5 5 8 6 5 7 4 4 6 6 6 6 5 7 4 9 7 6 8 7 7 6 5 2 6 6 4 6 7 2 4 3 5 5 6 4 5 5 5 5 7 8 5 7 7 7 7 9 6 4 2 2 6 3 1 2 4 5 6 7 6 7 8 10 10
3 4 3 3 1 3 6 7 6 2 5 7 5 4 3 3 6 6 5 5 6 4 3 4 5 6 5 8 4 5 5 6 6 6 5 7 7 8 6 4 8 8 8 6 6 6 4 3 6 7 7 5 3 3 2 3 5 7 6 6 5 6 5 6 7 5 4 7 9 10 11 8 1 3 3 1 1 1 1 3 4 4 4 4 6 8 9 10
3 3 4 1 2 5 6 7 5 4 8 5 2 6 4 5 4 1 5 5 6 6 5 6 6 7 7 7 5 5 6 5 5 7 4 7 5 6 6 9 6 8 8 2 3 5 1 6 6 8 7 5 4 3 3 3 4 7 9 8 6 7 6 7 7 4 7 5 6 7 9 7 4 7 5 2 3 2 2 3 6 5 3 3 5 7 9 9
2 4 1 3 1 4 7 7 6 7 7 6 5 7 4 5 4 5 8 6 6 5 8 6 5 7 6 5 5 7 6 4 6 7 6 5 4 3 7 8 10 7 8 5 6 10 5 5 6 5 6 5 6 4 5 3 6 7 6 6 8 7 6 6 7 5 7 10 12 9 11 6 6 3 4 4 5 6 8 5 5 6 3 3 5 6 7 8
4 3 4 2 2 6 8 6 8 4 6 7 8 10 9 6 7 9 8 9 6 8 5 8 8 4 6 4 7 6 7 9 4 6 5 2 3 5 6 9 12 7 8 5 3 7 6 4 5 6 6 6 6 6 2 2 5 5 6 7 7 9 9 6 7 6 8 7 9 8 9 9 2 6 4 6 7 7 7 7 6 5 5 4 4 6 7 8
1 2 3 4 4 6 8 3 4 6 6 6 5 9 8 9 5 6 7 10 9 7 8 5 3 6 7 6 8 8 8 8 7 2 6 6 5 5 6 11 10 10 5 8 6 7 4 4 7 8 8 7 5 6 3 5 5 5 7 8 9 10 10 9 8 8 8 5 9 9 11 12 13 11 9 11 8 7 6 6 6 5 5 5 5 6 7 8
1 3 1 1 3 6 7 5 7 7 7 5 5 4 8 9 7 4 7 7 6 9 8 9 7 7 8 9 10 10 10 9 8 6 7 7 6 4 6 8 11 6 9 7 9 6 6 7 9 11 11 11 10 10 6 4 8 9 9 9 8 9 10 11 9 10 7 7 11 8 8 10 10 10 10 9 9 9 8 7 8 7 5 6 6 7 9 9
3 1 1 4 3 1 4 6 6 8 9 7 8 4 7 6 5 5 4 7 3 5 6 6 10 12 10 12 11 8 9 10 8 7 9 9 7 7 7 8 10 10 10 8 10 8 7 6 7 7 10 10 9 10 8 8 9 10 10 10 11 10 11 13 14 14 13 9 12 11 12 15 14 12 12 11 10 9 8 8 8 7 7 7 8 8 10 11
3 1 0 1 3 3 4 4 3 5 9 10 8 9 11 11 11 7 5 2 4 6 10 6 10 13 15 13 11 10 10 7 7 10 9 8 11 7 8 9 10 9 12 7 9 6 6 8 5 6 9 9 9 9 7 10 10 12 12 12 12 13 14 14 15 15 15 16 16 15 17 18 15 15 13 10 6 5 5 5 5 7 9 9 9 10 11 11
2 2 3 2 6 6 4 4 4 5 8 8 7 10 11 12 13 11 8 7 5 7 5 11 12 11 13 15 13 13 12 11 9 6 8 11 8 9 8 9 5 10 10 10 8 6 8 3 6 6 8 9 9 7 8 9 10 13 13 13 13 13 14 15 15 15 16 16 17 17 17 16 13 11 10 6 5 4 5 7 7 7 7 9 10 11 12 12
1 2 2 3 4 4 4 6 6 7 6 7 9 10 10 11 13 11 12 9 11 10 6 9 10 12 9 11 14 17 15 12 11 12 7 8 9 8 8 7 9 7 11 9 8 7 8 5 4 5 6 8 8 7 7 8 9 13 14 14 14 14 14 13 13 12 13 14 15 13 13 11 9 7 5 6 8 8 8 7 7 7 7 8 9 11 12 13
3 2 3 3 4 2 5 3 5 5 7 8 8 8 8 10 9 8 7 9 13 13 12 10 7 6 10 8 13 13 11 10 11 10 9 9 9 8 9 9 9 10 8 9 9 9 9 8 4 5 8 7 4 4 7 8 10 12 13 15 14 13 13 12 12 12 14 13 10 10 11 9 9 7 8 8 8 8 9 8 8 8 7 8 9 11 11 12
Wind_Direction
356 354 352 351 349 347 347 345 343 342 341 340 339 338 340 338 336 333 331 327 321 318 318 318 320 316 314 312 314 323 313 283 218 222 214 49 10 29 335 92 123 187 218 225 161 183 176 178 183 169 189 189 174 197 136 201 184 197 215 213 204 187 194 147 335 43 25 302 37 76 176 219 178 176 178 187 174 130 135 120 106 90 77 94 111 120 128 132
353 352 351 349 347 345 344 344 342 340 339 338 337 337 337 335 333 328 324 321 315 312 314 319 316 312 312 311 309 325 307 269 214 70 43 41 66 109 159 157 167 223 249 227 188 189 174 180 168 185 182 191 153 181 172 156 210 208 216 221 203 186 109 90 50 6 326 25 351 70 162 243 139 169 159 180 158 154 140 135 133 104 101 111 114 124 132 133
351 349 349 347 345 343 342 342 342 340 337 335 333 334 334 329 325 324 317 313 308 309 313 311 312 313 306 308 314 301 291 238 180 67 65 80 102 174 215 184 235 235 261 311 201 223 234 168 169 191 189 180 187 158 205 145 207 228 243 199 208 151 113 181 350 352 342 343 350 32 125 229 128 206 165 191 161 168 162 141 163 124 128 123 121 126 129 127
348 348 346 345 342 341 341 341 341 338 336 333 331 331 331 327 322 319 312 306 303 307 310 306 312 313 310 299 316 302 258 233 76 70 87 113 125 223 242 273 260 240 267 327 279 239 217 174 179 206 178 205 165 183 191 140 227 144 242 214 158 144 164 138 334 4 354 353 342 28 133 139 143 137 179 167 174 158 141 128 157 150 145 131 125 122 116 122
347 346 345 342 341 341 339 338 339 336 333 332 329 326 327 320 320 315 308 303 303 303 305 309 310 311 301 293 294 265 276 237 76 60 103 117 124 240 285 283 271 264 294 64 206 190 200 175 181 209 201 175 168 180 197 153 254 131 226 341 64 145 231 101 18 22 342 329 309 325 181 88 122 113 97 144 172 153 149 141 155 145 135 134 129 124 125 125
347 345 344 342 339 338 338 335 335 332 328 328 327 325 323 320 314 312 305 302 302 302 305 310 315 313 299 226 263 240 252 72 120 79 96 127 123 63 257 259 272 280 253 220 231 179 188 183 188 185 200 187 176 190 144 188 182 209 192 241 224 191 268 99 342 16 324 333 347 31 65 126 130 101 99 115 100 45 74 118 128 123 126 120 118 123 126 124
346 345 343 342 339 336 334 334 333 328 325 327 326 324 319 320 316 310 304 300 301 303 308 315 319 315 308 285 210 234 119 91 245 94 111 131 112 171 216 225 225 254 263 225 188 192 198 180 211 174 199 198 162 201 156 177 198 266 191 190 198 214 234 244 327 338 318 316 352 22 225 149 147 112 97 118 114 93 102 120 119 113 112 114 118 123 123 121
346 344 342 340 338 335 332 332 331 326 323 326 326 324 321 324 315 308 302 295 300 304 312 321 325 309 325 269 244 146 99 88 69 106 121 129 173 180 220 236 257 268 310 29 157 183 192 193 205 152 216 205 166 191 154 185 191 214 232 174 174 242 250 273 322 307 311 300 317 260 183 93 26 107 107 77 90 104 113 117 113 114 118 118 120 120 117 116
345 343 341 339 335 332 332 331 329 329 324 326 328 327 324 324 317 308 299 295 301 307 320 326 316 310 234 282 251 112 85 38 15 114 153 171 187 202 237 252 206 308 34 26 20 77 240 141 223 214 135 194 153 180 171 209 190 226 237 152 205 229 239 303 297 300 303 271 305 232 104 100 98 110 69 74 105 118 124 119 122 120 124 129 125 124 121 118
344 342 339 337 334 331 331 331 328 330 328 328 329 328 326 324 318 309 297 297 306 308 318 338 302 294 263 259 228 117 90 352 277 176 188 189 184 217 231 291 314 332 356 48 336 4 9 119 300 166 285 95 180 170 152 224 40 189 222 221 222 211 250 251 317 11 291 266 288 245 129 118 142 241 106 84 115 131 138 131 129 126 125 125 127 125 126 128
342 340 339 336 334 332 331 330 329 329 329 329 329 325 324 324 322 309 308 310 316 337 359 347 322 284 285 265 226 97 79 247 117 172 180 195 209 240 292 306 307 315 337 87 47 19 45 76 155 145 231 121 183 143 219 206 29 209 260 235 231 238 240 246 244 272 213 169 244 277 131 136 174 78 88 121 131 144 140 136 132 127 124 130 128 123 116 114
341 339 338 336 334 332 331 330 329 330 330 331 329 325 327 330 322 320 314 346 220 187 115 98 278 284 287 295 70 70 152 306 264 187 188 196 225 285 323 300 304 322 329 19 60 42 360 20 251 234 335 156 155 131 183 200 227 241 235 222 207 209 221 204 203 160 237 130 214 259 171 199 172 105 112 114 156 146 143 135 135 131 127 127 134 131 126 121
339 339 337 335 334 333 331 330 329 330 331 330 329 327 329 331 322 322 244 138 88 145 88 120 258 271 287 104 62 82 232 29 193 205 212 215 261 249 273 295 292 312 318 316 20 32 357 303 291 275 113 238 133 314 84 195 182 203 208 240 174 201 212 172 149 158 204 81 256 230 207 186 130 108 124 155 160 149 146 139 139 133 129 129 131 129 122 120
339 337 336 334 333 333 331 330 329 330 330 328 328 325 329 327 327 307 112 67 120 109 136 240 269 266 263 81 112 95 142 188 168 192 205 222 255 183 211 204 258 303 295 286 337 355 305 300 279 28 113 300 112 156 185 149 180 207 141 228 212 184 197 157 187 154 195 108 243 231 240 192 139 110 129 158 165 160 147 158 142 131 126 128 123 123 111 98
338 337 336 335 334 333 332 330 328 329 328 326 323 324 323 325 329 312 188 143 71 123 157 228 244 263 173 90 126 108 90 233 200 45 28 235 245 195 177 192 230 336 328 279 311 330 299 264 254 210 143 86 148 197 169 168 182 171 179 193 207 223 150 148 169 183 205 153 211 228 241 224 155 134 148 162 165 179 159 164 143 127 124 124 122 115 112 105
339 337 335 336 335 335 332 331 328 326 326 323 319 319 316 304 303 278 356 43 143 202 209 240 190 295 333 108 93 139 195 194 44 9 26 285 289 331 20 298 303 206 208 145 282 190 242 266 288 6 157 162 213 213 165 171 178 187 241 166 188 214 161 165 180 182 247 140 191 224 238 221 139 142 151 163 179 177 163 155 135 125 127 127 115 117 108 110
339 338 335 335 336 334 334 331 329 326 324 319 318 298 285 290 263 240 165 182 180 217 268 336 330 261 352 62 194 184 42 19 333 262 7 68 297 321 283 227 212 204 144 142 192 221 165 232 119 220 246 259 214 234 200 205 171 191 216 201 206 202 178 212 128 193 183 220 197 206 248 258 115 154 157 165 188 181 172 165 145 139 132 110 115 127 123 126
337 339 338 335 335 335 333 331 329 326 323 318 311 276 285 241 275 258 219 220 186 232 270 256 299 264 113 191 66 24 330 347 336 338 317 46 265 221 298 270 194 198 165 146 150 225 155 214 200 224 179 202 198 217 243 202 212 191 179 221 164 238 261 278 184 129 210 200 244 202 230 218 161 163 173 172 189 180 178 169 167 143 118 125 146 144 144 140
336 339 338 336 334 334 333 331 328 326 323 317 288 258 234 270 258 260 282 230 223 190 204 99 297 302 53 42 7 293 345 340 302 269 138 213 152 211 178 222 234 181 183 222 90 250 171 196 213 218 202 194 204 237 248 357 21 278 229 224 253 205 198 226 224 85 233 215 223 224 223 211 177 175 175 185 183 185 168 166 165 144 137 156 167 155 166 146
336 340 339 336 335 332 332 331 328 323 328 326 289 208 199 187 179 166 185 302 21 18 4 5 323 292 252 45 2 342 287 253 232 101 91 111 248 219 262 272 164 211 234 125 121 97 238 202 197 200 205 92 34 345 345 355 317 333 250 263 236 256 244 87 282 60 246 250 234 223 227 218 190 180 179 182 178 176 168 170 171 169 173 177 176 170 161 147
339 342 340 336 334 333 330 330 327 321 322 307 287 342 48 10 287 120 345 331 37 347 316 9 323 317 334 333 327 337 307 150 338 103 39 350 258 274 65 259 214 132 61 81 0 123 247 196 141 14 10 351 11 3 315 202 230 259 255 240 224 203 247 94 349 278 223 236 224 218 232 217 193 177 181 178 182 179 176 173 177 177 182 185 178 163 158 151
341 342 340 336 333 332 330 328 324 317 310 280 7 66 87 43 6 25 288 169 131 103 248 290 312 281 228 283 338 304 272 169 129 104 105 268 220 265 77 304 18 81 137 163 165 185 208 78 67 34 25 19 208 237 250 253 224 216 253 227 262 224 247 122 169 196 210 222 237 197 221 206 184 184 183 183 189 180 180 178 179 182 182 188 178 159 156 162
343 342 340 337 334 329 331 321 318 311 309 2 53 70 56 24 317 218 242 278 260 139 244 205 220 278 102 116 71 221 252 111 98 110 75 289 112 28 306 256 64 125 176 224 231 148 168 108 67 43 104 201 148 212 201 207 236 241 216 237 232 264 280 212 142 185 196 218 236 196 216 176 183 197 190 190 195 160 208 183 180 185 187 191 183 164 167 158
342 343 340 338 334 330 325 322 307 284 2 355 47 52 43 323 270 189 204 282 63 138 309 52 334 340 31 352 72 280 319 100 260 109 66 291 16 59 269 8 136 243 77 351 334 316 55 74 47 9 264 270 189 181 233 223 222 220 286 279 267 253 236 308 92 155 170 198 266 199 214 178 195 193 192 189 187 182 184 183 179 187 198 191 177 166 172 158
343 341 340 338 335 330 322 319 298 14 321 265 101 67 356 306 268 225 248 155 204 141 145 186 243 242 71 178 189 262 84 140 33 53 21 303 115 222 53 1 283 93 68 23 154 167 126 69 208 216 185 219 239 204 214 289 264 235 235 334 333 305 277 221 165 195 204 196 209 209 220 219 195 205 195 176 189 191 180 188 188 189 190 186 189 183 172 166
343 338 339 339 336 332 313 300 56 341 287 69 53 41 334 309 257 236 263 230 161 118 181 179 250 139 307 154 224 287 267 123 44 52 350 5 329 322 179 170 312 108 152 239 307 6 74 117 272 263 227 230 242 293 57 266 274 257 193 323 301 284 263 237 225 244 241 249 174 218 244 219 179 205 185 191 203 194 188 197 194 192 185 185 191 179 175 173
340 338 337 338 340 338 320 73 344 299 235 106 66 359 330 301 261 208 256 165 207 80 207 66 216 85 279 47 303 181 232 100 123 102 171 53 305 59 275 81 184 75 18 331 234 173 156 163 193 217 245 238 238 238 158 265 274 261 67 268 268 253 247 250 260 255 283 47 54 217 234 259 202 200 199 178 202 195 202 198 195 208 196 189 188 177 174 171
337 337 336 337 337 334 305 312 317 294 35 56 3 345 328 310 221 245 261 238 109 174 182 166 47 117 253 107 265 277 32 123 208 119 54 38 259 195 273 51 316 102 168 238 263 95 256 170 223 233 241 259 255 325 66 265 268 318 54 264 261 277 275 268 265 268 266 278 225 204 212 239 247 185 187 186 200 204 200 199 202 201 196 194 189 181 173 174
332 333 335 334 327 308 283 271 302 293 37 4 349 338 343 30 237 272 278 256 105 196 29 157 120 208 183 174 196 227 222 172 297 88 161 199 57 324 281 99 278 128 184 282 294 135 141 314 21 314 288 263 350 161 265 274 260 91 294 244 240 245 242 258 254 244 232 232 246 224 193 240 238 170 179 190 220 216 212 200 202 202 197 190 187 184 177 173
325 327 329 334 317 200 255 230 240 260 324 334 326 325 95 184 226 232 211 240 137 169 197 76 217 152 194 220 178 167 214 146 222 139 119 283 88 158 75 348 244 220 202 194 266 38 52 103 351 273 281 348 308 161 284 264 355 250 239 240 233 235 244 233 250 274 261 248 247 263 201 241 254 206 193 192 212 214 205 204 207 207 196 194 192 189 180 177
317 317 321 327 307 353 311 259 95 38 347 318 313 280 184 211 260 264 233 63 219 100 168 197 157 195 194 206 193 148 200 167 172 216 186 181 174 172 135 195 211 244 251 237 221 169 197 183 214 151 302 278 280 242 175 264 259 235 235 249 255 253 242 251 250 229 248 247 232 232 233 227 253 234 223 183 215 230 211 211 209 206 200 197 193 189 186 179
312 309 309 305 275 315 250 20 33 342 340 321 301 239 213 224 200 243 170 115 252 150 218 143 165 180 161 151 248 163 166 167 166 209 258 214 260 233 174 293 241 282 255 252 279 154 241 219 53 192 116 268 239 246 204 215 215 233 240 241 248 250 213 234 225 223 235 256 199 174 212 221 236 255 314 126 176 198 211 226 223 215 213 202 193 188 185 180
310 306 305 276 237 221 235 262 305 311 313 303 286 221 220 231 248 218 203 178 143 146 147 320 142 182 153 199 189 152 176 261 128 199 226 183 264 189 65 275 15 276 299 74 295 283 258 122 206 158 196 173 267 252 232 224 219 226 232 238 239 245 243 244 239 247 254 223 159 201 165 255 282 256 234 198 192 229 213 226 240 246 234 219 202 191 184 183
307 309 304 238 217 228 250 242 261 310 305 286 250 205 243 235 232 36 291 197 59 65 122 164 150 166 186 233 124 185 213 166 234 160 205 205 219 245 175 172 213 230 245 292 278 334 294 204 177 209 183 94 250 268 302 283 246 238 245 244 249 252 270 261 245 248 242 262 159 154 232 259 242 129 110 155 45 61 224 251 248 243 241 229 210 200 192 185
307 293 257 252 234 238 234 234 235 255 276 255 225 223 211 228 255 230 218 196 133 184 171 143 197 196 176 214 135 183 316 159 185 187 214 218 227 234 240 182 178 269 260 279 98 266 285 297 86 20 32 276 266 29 289 271 253 242 260 263 252 257 153 241 333 314 319 305 241 183 234 292 238 135 147 162 177 214 224 234 233 226 221 221 214 209 204 195
296 340 263 236 248 116 182 184 187 189 220 223 227 223 229 243 278 165 311 16 116 204 155 191 218 215 209 185 162 202 126 276 144 229 203 223 274 261 149 196 181 198 260 266 37 275 215 242 109 109 208 238 336 264 223 286 255 138 220 226 266 5 281 279 228 268 331 263 255 260 243 235 234 202 203 198 206 224 210 228 222 224 213 206 206 204 204 201
334 318 250 274 164 111 157 166 164 179 210 237 232 237 249 254 283 301 77 239 26 279 174 222 188 234 204 208 188 181 162 217 199 229 216 173 219 212 194 180 226 184 244 295 237 233 297 330 149 202 194 131 337 296 303 260 292 265 233 117 79 22 323 281 271 186 230 250 256 241 253 263 266 273 121 189 236 224 231 233 221 222 212 208 210 207 201 198
320 303 267 296 25 83 154 162 172 192 223 224 234 252 32 265 109 283 64 192 204 223 240 232 89 297 215 219 188 174 154 232 145 200 250 177 332 139 188 187 170 218 194 177 283 106 263 273 157 197 282 137 180 229 206 186 240 268 316 38 262 212 226 208 258 260 258 255 272 250 252 258 253 249 174 210 236 246 228 214 237 231 219 218 218 213 206 197
270 287 217 65 23 139 161 170 220 207 212 218 236 237 230 259 11 241 146 299 328 263 239 235 273 180 304 226 128 151 163 229 153 219 234 165 237 163 198 199 168 180 194 185 234 133 209 279 172 166 200 156 225 224 243 177 167 235 262 242 226 281 258 246 216 278 277 274 273 269 267 260 240 249 259 287 310 276 291 254 251 258 243 228 221 211 204 194
328 281 133 35 64 167 165 207 224 205 221 229 230 239 53 301 271 226 204 219 221 235 234 254 227 229 209 284 235 218 178 256 216 208 240 140 231 144 203 193 191 172 181 204 257 180 234 174 285 137 173 197 231 214 242 238 234 185 218 222 185 237 13 296 287 257 263 281 278 290 273 271 330 62 77 308 290 309 304 291 282 269 259 237 222 206 203 197
253 271 86 26 48 160 190 224 211 208 221 232 282 284 317 270 322 242 218 186 256 272 305 291 241 223 212 203 219 225 200 217 224 230 224 180 228 198 190 191 190 167 177 189 217 194 225 198 255 213 202 219 266 67 320 282 295 283 268 246 249 239 221 230 252 216 257 258 265 271 276 281 89 165 326 294 308 317 336 309 297 286 270 244 219 203 196 196
274 257 97 24 95 211 231 210 211 240 246 238 261 211 237 31 250 262 239 171 222 239 165 269 271 271 226 225 294 181 228 215 214 241 197 258 172 265 118 201 188 165 192 196 235 166 281 278 256 255 259 278 40 97 65 306 284 278 281 266 263 269 272 258 266 259 246 254 275 277 286 278 38 62 335 286 250 271 0 322 321 310 282 236 214 208 199 202
245 306 84 22 190 252 233 241 217 205 226 246 0 253 237 241 271 278 256 198 223 215 234 223 227 224 226 253 228 232 215 240 216 228 222 223 231 223 124 182 171 190 228 154 125 136 151 234 236 250 256 239 184 165 186 230 251 242 232 250 249 243 249 257 266 313 288 290 260 263 253 272 147 160 188 200 246 262 299 299 306 306 306 239 213 206 200 197
308 290 188 110 229 251 231 229 222 223 233 214 229 260 188 263 243 233 236 223 230 187 225 226 213 227 272 222 228 234 195 250 203 244 223 218 238 137 173 186 183 200 215 165 239 139 220 194 261 264 251 216 198 194 203 182 225 239 249 214 234 254 255 268 284 268 264 262 272 277 277 282 117 184 161 222 221 260 284 270 258 283 259 238 218 204 203 198
282 226 243 237 204 222 228 241 250 257 233 240 251 244 236 223 223 243 258 249 218 248 247 236 244 190 208 187 230 238 211 237 275 202 299 212 216 130 196 203 199 221 209 57 14 139 241 195 210 248 248 249 243 240 247 195 209 234 248 246 231 245 237 239 245 241 251 259 265 260 268 280 291 149 209 239 259 273 267 268 258 250 269 255 228 209 203 202
298 298 136 167 192 209 250 304 301 274 262 252 258 260 256 255 225 214 233 252 245 243 243 272 253 233 216 180 214 220 223 212 243 236 210 221 207 185 188 204 201 227 153 131 172 184 250 245 240 251 256 264 282 310 333 303 259 241 229 234 237 231 244 243 263 259 255 271 264 259 272 286 287 288 300 292 281 277 280 271 242 227 221 234 229 222 212 208
330 252 328 213 167 221 238 220 235 239 250 261 259 247 242 242 255 241 174 254 203 234 235 232 231 210 204 207 218 225 226 224 207 253 231 244 230 166 154 210 204 208 127 166 186 202 229 243 227 242 255 266 283 280 288 265 272 266 261 245 235 232 233 242 243 252 268 276 267 272 285 285 286 291 291 284 283 274 264 250 247 250 245 240 229 218 216 215
241 90 329 34 308 193 212 222 236 241 245 237 250 266 258 260 230 234 170 233 272 225 237 203 224 230 224 209 217 234 220 227 211 224 230 235 245 178 193 189 221 175 177 197 186 213 234 244 237 241 249 259 262 272 274 261 258 264 263 263 255 242 235 238 243 251 261 262 271 286 291 286 286 288 292 290 289 284 285 288 281 276 264 237 227 221 216 216
297 8 264 45 234 260 297 2 336 271 260 241 252 245 254 252 252 244 272 251 230 227 220 245 225 222 227 225 225 231 220 213 216 228 234 232 229 219 224 192 212 180 202 207 198 215 246 245 233 216 267 267 263 258 259 261 262 256 253 253 253 251 246 244 248 250 253 259 265 273 280 282 288 291 291 294 296 288 284 276 263 245 240 239 228 223 221 219
197 237 182 177 258 286 268 262 250 243 241 225 240 238 248 251 252 251 235 239 254 255 221 245 249 244 238 237 233 238 231 220 233 231 223 244 234 230 237 228 203 194 212 214 196 193 230 216 152 224 251 256 252 246 251 255 262 267 262 257 253 250 252 249 250 251 256 261 262 265 273 279 283 282 274 264 264 275 258 251 251 252 245 233 229 226 223 222
328 321 326 283 254 229 223 234 240 244 250 227 230 237 245 248 257 257 259 241 246 255 226 245 261 259 251 247 238 241 245 238 242 255 249 222 249 221 236 223 229 209 210 209 207 184 208 241 208 236 255 264 254 243 252 253 259 266 269 259 251 247 246 240 240 240 245 250 257 266 269 269 277 281 283 274 264 249 248 250 250 243 235 231 232 232 227 221
250 228 254 261 259 182 249 212 242 245 244 240 242 236 231 248 261 262 269 257 244 245 257 266 270 284 243 237 240 249 272 270 261 265 281 270 253 251 235 245 227 228 211 219 210 218 209 232 222 230 251 260 271 245 269 278 275 265 253 252 250 247 246 248 246 239 236 246 258 258 262 275 296 310 290 275 264 258 257 254 256 245 239 239 236 236 233 223